This is the latest recevied weather packets stored in our database for station/object AE5HO. If no packets are shown the sender has not sent any weather packets the latest 10 day(s).
| Time | Temp. | Humidity | Pressure | Rain* | Wind** | Luminosity | Snow |
|---|---|---|---|---|---|---|---|
| 1787774636 | 35.56° C | 50% | 1014.6 hPa | 0 mm | - | 150 W/m² | - |
| 1787774335 | 35.56° C | 50% | 1014.6 hPa | 0 mm | - | 148 W/m² | - |
| 1787774031 | 35.56° C | 51% | 1015 hPa | 0 mm | - | 158 W/m² | - |
| 1787773729 | 35.56° C | 53% | 1015 hPa | 0 mm | - | 164 W/m² | - |
| 1787773424 | 34.44° C | 54% | 1015 hPa | 0 mm | - | 165 W/m² | - |
| 1787773124 | 34.44° C | 53% | 1014.8 hPa | 0 mm | - | 158 W/m² | - |
| 1787772821 | 33.89° C | 55% | 1015.2 hPa | 0 mm | - | 148 W/m² | - |
| 1787772519 | 33.89° C | 55% | 1015.3 hPa | 0 mm | - | 148 W/m² | - |
| 1787772219 | 33.89° C | 56% | 1015.1 hPa | 0 mm | - | 138 W/m² | - |
| 1787771918 | 33.33° C | 56% | 1015.2 hPa | 0 mm | - | 133 W/m² | - |
| 1787771613 | 33.33° C | 58% | 1015.4 hPa | 0 mm | - | 116 W/m² | - |
| 1787771312 | 33.33° C | 57% | 1015.1 hPa | 0 mm | - | 100 W/m² | - |
| 1787771008 | 33.33° C | 58% | 1015.2 hPa | 0 mm | - | 89 W/m² | - |
| 1787770706 | 33.33° C | 57% | 1015 hPa | 0 mm | - | 91 W/m² | - |
| 1787770401 | 32.78° C | 58% | 1015.3 hPa | 0 mm | - | 87 W/m² | - |
| 1787770100 | 33.33° C | 57% | 1015.3 hPa | 0 mm | - | 88 W/m² | - |
| 1787769794 | 33.33° C | 58% | 1015.4 hPa | 0 mm | - | 99 W/m² | - |
| 1787769494 | 33.33° C | 57% | 1015.6 hPa | 0 mm | - | 110 W/m² | - |
| 1787769188 | 33.33° C | 57% | 1015.5 hPa | 0 mm | - | 111 W/m² | - |
| 1787768888 | 33.33° C | 56% | 1015.5 hPa | 0 mm | - | 100 W/m² | - |
| 1787768584 | 33.33° C | 57% | 1015.2 hPa | 0 mm | - | 100 W/m² | - |
| 1787768281 | 33.33° C | 57% | 1015.5 hPa | 0 mm | - | 99 W/m² | - |
| 1787767977 | 33.33° C | 58% | 1015.2 hPa | 0 mm | - | 89 W/m² | - |
| 1787767676 | 33.89° C | 55% | 1015.5 hPa | 0 mm | - | 79 W/m² | - |
| 1787767376 | 33.89° C | 55% | 1015.6 hPa | 0 mm | - | 79 W/m² | - |
* Rain latest hour (hover to see other rain measurements)
** Current wind speed in m/s (hover to see current wind gust speed)